sat.trackr.live / text

‹ back to catalog

STARLINK-34473

NORAD 64354 · 2025-126L

PAYLOAD ACTIVE UNKNOWN

§ Identity

Operator
Country
US
Launch date
2025-06-13
Launch site
AFWTR
Launch vehicle
Mass (kg)
RCS (m²)

Purposes: comms

External: N2YO · Heavens-Above · Gunter

§ Orbital elements

Epoch: 2026-05-25T03:19:34.155264Z

Period
96.11 min
Inclination
70.0008°
Eccentricity
0.0003767
Mean motion
14.98335096 rev/d
Perigee alt
569.4 km
Apogee alt
574.7 km
Semi-major
6,950.2 km
B*
1.7505e-4
RAAN
201.6837°
Arg perigee
265.1219°
Mean anomaly
94.9510°
Rev number
5,213

§ Raw data

STARLINK-344731 64354U 25126L   26145.13858976  .00001997  00000+0  17505-3 0  99992 64354  70.0008 201.6837 0003767 265.1219  94.9510 14.98335096 52132

JSON: /api/v1/satellites/64354 · /tle

For live sub-satellite position, see the globe view (requires WebGL).

§ Visibility from observer

Set your observer location to see the next 7 days of passes ≥ 10°. The values pass through the URL so the page stays shareable.

No JS? Fill the form by hand. The geolocation button needs JavaScript.